Weather History for Philip, SD

Change the Weather History Date:

Thursday, October 3, 2013

  Actual Average Record
Temperature  
Mean Temperature 48 °F 54 °F  
Max Temperature 52 °F 69 °F 94 °F (1967)
Min Temperature 44 °F 39 °F 27 °F (1968)
Degree Days  
Heating Degree Days 17 11  
Month to date heating degree days 30 32  
Since 1 July heating degree days 93 218  
Cooling Degree Days 0 0  
Month to date cooling degree days 0 0  
Year to date cooling degree days 945 814  
Moisture  
Dew Point 43 °F    
Average Humidity 79    
Maximum Humidity 92    
Minimum Humidity 66    
Precipitation  
Precipitation 0.48 in 0.05 in 1.03 in (1951)
Month to date precipitation 0.48 0.16  
Year to date precipitation 11.47 15.03  
Sea Level Pressure  
Sea Level Pressure 29.95 in    
Wind  
Wind Speed 16 mph (NE)    
Max Wind Speed 28 mph    
Max Gust Speed 33 mph    
Visibility 8 miles    
Events Rain    
T = Trace of Precipitation, MM = Missing Value Source: NWS Daily Summary

Daily Weather History Graph

Daily Weather History Graph

Search for Another Location

Airport:

Trip Planner

Search our weather history database for the weather conditions in past years. The results will help you decide how hot, cold, wet, or windy it might be!

Date:

Astronomy

Oct. 03, 2013 Rise Set
Actual Time 6:46 AM MDT 6:23 PM MDT
Civil Twilight 6:17 AM MDT 6:51 PM MDT
Nautical Twilight 5:44 AM MDT 7:25 PM MDT
Astronomical Twilight 5:10 AM MDT 7:58 PM MDT
Moon 5:20 AM MDT (10/3) 5:33 PM MDT (10/3)
Length of Visible Light 12h 33m
Length of Day
11h 36m
Waning Crescent, 2% of the Moon is Illuminated
Oct 3
Waning Crescent
Oct 4
New
Oct 11
First Quarter
Oct 18
Full
Oct 26
Last Quarter

Hourly Weather History & Observations

Time (MDT) Temp. Windchill Dew Point Humidity Pressure Visibility Wind Dir Wind Speed Gust Speed Precip Events Conditions
12:55 AM 46.9 °F - 41.0 °F 80% 29.91 in 10.0 mi NE 6.9 mph - N/A   Scattered Clouds
1:55 AM 48.0 °F - 43.0 °F 83% 29.91 in 10.0 mi North 6.9 mph - N/A   Overcast
2:55 AM 50.0 °F - 44.1 °F 80% 29.88 in 10.0 mi NE 9.2 mph - N/A   Overcast
3:55 AM 48.9 °F - 45.0 °F 86% 29.91 in 10.0 mi NNE 9.2 mph - 0.00 in Rain Light Rain
4:55 AM 48.9 °F - 45.0 °F 86% 29.89 in 10.0 mi NE 8.1 mph - 0.00 in   Overcast
5:55 AM 48.9 °F - 44.1 °F 83% 29.91 in 10.0 mi NNW 8.1 mph - N/A   Overcast
6:55 AM 50.0 °F - 44.1 °F 80% 29.93 in 10.0 mi North 12.7 mph - 0.00 in   Overcast
7:55 AM 50.0 °F - 44.1 °F 80% 29.92 in 10.0 mi NNE 10.4 mph - 0.01 in   Overcast
8:55 AM 50.0 °F - 43.0 °F 77% 29.95 in 10.0 mi NNE 10.4 mph - N/A   Overcast
9:11 AM 51.8 °F - 42.8 °F 71% 29.94 in 10.0 mi NNE 11.5 mph - N/A   Overcast
9:55 AM 51.1 °F - 43.0 °F 74% 29.95 in 10.0 mi NNE 12.7 mph 20.7 mph N/A   Overcast
10:55 AM 52.0 °F - 43.0 °F 71% 29.93 in 10.0 mi NE 17.3 mph 23.0 mph N/A   Overcast
11:55 AM 50.0 °F - 45.0 °F 83% 29.94 in 5.0 mi NE 19.6 mph - 0.00 in Rain Light Rain
12:05 PM 50.0 °F - 46.4 °F 87% 29.92 in 3.0 mi NE 16.1 mph - 0.00 in Rain Light Rain
12:12 PM 50.0 °F - 46.4 °F 87% 29.92 in 3.0 mi NE 18.4 mph 23.0 mph 0.00 in Rain Light Rain
12:38 PM 50.0 °F - 46.4 °F 87% 29.93 in 3.0 mi NE 13.8 mph 25.3 mph 0.00 in Rain Light Rain
12:55 PM 50.0 °F - 46.9 °F 89% 29.93 in 4.0 mi NE 18.4 mph - 0.00 in Rain Light Rain
1:55 PM 50.0 °F - 46.0 °F 86% 29.92 in 10.0 mi NE 23.0 mph 29.9 mph 0.00 in   Overcast
2:55 PM 50.0 °F - 44.1 °F 80% 29.94 in 10.0 mi NE 19.6 mph 26.5 mph N/A   Overcast
3:55 PM 52.0 °F - 43.0 °F 71% 29.92 in 10.0 mi ENE 19.6 mph 27.6 mph N/A   Overcast
4:55 PM 51.1 °F - 42.1 °F 71% 29.96 in 10.0 mi NE 19.6 mph - N/A   Overcast
5:55 PM 50.0 °F - 41.0 °F 71% 29.97 in 10.0 mi NE 18.4 mph 32.2 mph N/A   Overcast
6:55 PM 50.0 °F - 39.0 °F 66% 29.98 in 10.0 mi NE 17.3 mph 31.1 mph N/A   Overcast
7:55 PM 48.9 °F - 39.9 °F 71% 29.98 in 10.0 mi NE 19.6 mph 33.4 mph 0.00 in   Overcast
8:55 PM 46.9 °F - 41.0 °F 80% 29.99 in 10.0 mi NE 16.1 mph 29.9 mph 0.00 in   Overcast
9:35 PM 46.4 °F 39.5 °F 42.8 °F 87% 29.99 in 10.0 mi NE 17.3 mph 27.6 mph 0.06 in Rain Light Rain
10:34 PM 44.6 °F 39.7 °F 42.8 °F 93% 30.01 in 3.0 mi NE 9.2 mph 21.9 mph 0.10 in Rain Rain
10:44 PM 44.6 °F 38.8 °F 42.8 °F 93% 30.00 in 2.5 mi NE 11.5 mph - 0.13 in Rain Rain
10:51 PM 44.6 °F 37.4 °F 42.8 °F 93% 29.99 in 3.0 mi NE 16.1 mph 20.7 mph 0.16 in Rain Rain
10:55 PM 45.0 °F 37.6 °F 43.0 °F 93% 30.00 in 3.0 mi NE 17.3 mph 24.2 mph 0.17 in Rain Rain
11:55 PM 45.0 °F 36.9 °F 42.1 °F 90% 29.98 in 5.0 mi NE 20.7 mph 27.6 mph 0.16 in Rain Rain